TimeEDT,TemperatureF,Dew PointF,Humidity,Sea Level PressureIn,VisibilityMPH,Wind Direction,Wind SpeedMPH,Gust SpeedMPH,PrecipitationIn,Events,Conditions,WindDirDegrees,DateUTC
12:41 AM,63.0,61.0,93,30.20,3.0,Calm,Calm,-,N/A,,Overcast,0,2013-09-19 04:41:00
12:53 AM,63.0,61.0,93,30.14,4.0,Calm,Calm,-,N/A,,Overcast,0,2013-09-19 04:53:00
1:11 AM,64.0,61.0,90,30.19,4.0,Calm,Calm,-,N/A,,Overcast,0,2013-09-19 05:11:00
1:32 AM,64.0,61.0,90,30.19,3.0,Calm,Calm,-,N/A,,Overcast,0,2013-09-19 05:32:00
1:44 AM,64.0,61.0,90,30.19,3.0,Calm,Calm,-,N/A,,Overcast,0,2013-09-19 05:44:00
1:53 AM,64.0,61.0,90,30.14,3.0,Calm,Calm,-,N/A,,Overcast,0,2013-09-19 05:53:00
2:23 AM,64.0,61.0,90,30.19,3.0,Calm,Calm,-,N/A,,Overcast,0,2013-09-19 06:23:00
2:53 AM,64.0,61.0,90,30.13,3.0,Calm,Calm,-,N/A,,Overcast,0,2013-09-19 06:53:00
3:53 AM,63.0,61.0,93,30.13,3.0,Calm,Calm,-,N/A,,Overcast,0,2013-09-19 07:53:00
4:07 AM,63.0,61.0,93,30.18,2.5,Calm,Calm,-,N/A,,Overcast,0,2013-09-19 08:07:00
4:39 AM,63.0,61.0,93,30.18,4.0,Calm,Calm,-,N/A,,Overcast,0,2013-09-19 08:39:00
4:53 AM,63.0,61.0,93,30.12,3.0,Calm,Calm,-,N/A,,Overcast,0,2013-09-19 08:53:00
5:53 AM,63.0,61.0,93,30.12,3.0,Calm,Calm,-,N/A,,Overcast,0,2013-09-19 09:53:00
6:06 AM,63.0,61.0,93,30.17,2.5,Calm,Calm,-,N/A,,Overcast,0,2013-09-19 10:06:00
6:33 AM,63.0,61.0,93,30.18,3.0,Calm,Calm,-,N/A,,Overcast,0,2013-09-19 10:33:00
6:53 AM,63.0,61.0,93,30.13,4.0,Calm,Calm,-,N/A,,Overcast,0,2013-09-19 10:53:00
7:53 AM,63.0,61.0,93,30.14,2.5,Calm,Calm,-,0.00,,Overcast,0,2013-09-19 11:53:00
8:36 AM,64.0,62.1,93,30.20,2.5,Calm,Calm,-,0.02,,Overcast,0,2013-09-19 12:36:00
8:53 AM,64.0,62.1,93,30.15,2.5,SW,4.6,-,0.02,,Overcast,230,2013-09-19 12:53:00
9:53 AM,64.9,62.1,90,30.16,2.5,Calm,Calm,-,N/A,,Overcast,0,2013-09-19 13:53:00
10:02 AM,64.9,62.1,90,30.22,2.5,Calm,Calm,-,N/A,,Overcast,0,2013-09-19 14:02:00
10:34 AM,66.0,63.0,90,30.22,6.0,SW,5.8,-,N/A,,Overcast,220,2013-09-19 14:34:00
10:53 AM,66.9,63.0,87,30.17,6.0,SSW,4.6,-,N/A,,Overcast,210,2013-09-19 14:53:00
11:43 AM,68.0,63.0,84,30.23,10.0,SW,4.6,-,N/A,,Overcast,230,2013-09-19 15:43:00
11:53 AM,68.0,62.1,81,30.17,10.0,WSW,4.6,-,N/A,,Overcast,250,2013-09-19 15:53:00
12:09 PM,69.1,61.0,75,30.22,10.0,WSW,8.1,-,N/A,,Overcast,250,2013-09-19 16:09:00
12:22 PM,70.0,63.0,78,30.21,10.0,SW,8.1,-,N/A,,Mostly Cloudy,230,2013-09-19 16:22:00
12:50 PM,69.8,62.6,78,30.21,10.0,West,8.1,-,N/A,,Overcast,270,2013-09-19 16:50:00
12:53 PM,70.0,62.1,76,30.15,10.0,WSW,8.1,-,N/A,,Overcast,250,2013-09-19 16:53:00
1:53 PM,70.0,62.1,76,30.14,10.0,West,4.6,-,N/A,,Overcast,260,2013-09-19 17:53:00
2:25 PM,72.0,63.0,73,30.18,10.0,SW,6.9,-,N/A,,Overcast,230,2013-09-19 18:25:00
2:53 PM,73.0,63.0,71,30.11,10.0,SW,3.5,-,N/A,,Overcast,230,2013-09-19 18:53:00
3:53 PM,75.0,63.0,66,30.09,10.0,WSW,6.9,-,N/A,,Mostly Cloudy,250,2013-09-19 19:53:00
4:53 PM,77.0,63.0,62,30.07,10.0,Calm,Calm,-,N/A,,Mostly Cloudy,0,2013-09-19 20:53:00
5:53 PM,77.0,62.1,60,30.07,10.0,SSW,5.8,-,N/A,,Scattered Clouds,210,2013-09-19 21:53:00
6:53 PM,73.9,63.0,68,30.06,10.0,SSE,3.5,-,N/A,,Scattered Clouds,160,2013-09-19 22:53:00
7:53 PM,70.0,64.0,81,30.06,10.0,Calm,Calm,-,N/A,,Mostly Cloudy,0,2013-09-19 23:53:00
8:53 PM,66.9,64.0,90,30.06,8.0,North,3.5,-,N/A,,Mostly Cloudy,10,2013-09-20 00:53:00
9:53 PM,66.9,64.0,90,30.06,6.0,Calm,Calm,-,N/A,,Mostly Cloudy,0,2013-09-20 01:53:00
10:53 PM,64.9,63.0,93,30.06,7.0,Calm,Calm,-,N/A,,Scattered Clouds,0,2013-09-20 02:53:00
11:53 PM,64.0,61.0,90,30.06,7.0,Calm,Calm,-,N/A,,Scattered Clouds,0,2013-09-20 03:53:00